• In Hungary
  • List of Countries
  • For 7 days
  • Water Temperature
  • Satellite Maps
  • Weather Map
  • News
  • Weather Widgets
  • user-avatar
    Login

    Hourly Weather Thimphu

    Today, 15 December, Friday

    Time Temperature Precipitation Wind Pressure Humidity
    00:00 +2°C° 0 mm 2 mps 523 mmHg 69%
    01:00 +1°C° 0 mm 2 mps 523 mmHg 66%
    02:00 +1°C° 0 mm 2 mps 523 mmHg 62%
    03:00 +1°C° 0 mm 2 mps 523 mmHg 59%
    04:00 +1°C° 0 mm 2 mps 523 mmHg 55%
    05:00 -1°C° 0 mm 2 mps 523 mmHg 51%
    06:00 +1°C° 0 mm 2 mps 523 mmHg 53%
    07:00 +3°C° 0 mm 2 mps 524 mmHg 47%
    08:00 +5°C° 0 mm 2 mps 526 mmHg 41%
    09:00 +7°C° 0 mm 2 mps 527 mmHg 35%
    10:00 +9°C° 0 mm 2 mps 528 mmHg 34%
    11:00 +10°C° 0 mm 2 mps 528 mmHg 33%
    12:00 +12°C° 0 mm 2 mps 529 mmHg 32%
    13:00 +12°C° 0 mm 2 mps 528 mmHg 36%
    14:00 +10°C° 0 mm 2 mps 528 mmHg 40%
    15:00 +10°C° 0 mm 2 mps 527 mmHg 43%
    16:00 +8°C° 0 mm 2 mps 526 mmHg 54%
    17:00 +5°C° 0 mm 2 mps 525 mmHg 65%
    18:00 +4°C° 0 mm 1 mps 524 mmHg 76%
    19:00 +3°C° 0 mm 1 mps 524 mmHg 73%
    20:00 +3°C° 0 mm 1 mps 524 mmHg 69%
    21:00 +3°C° 0 mm 1 mps 524 mmHg 66%
    22:00 +3°C° 0 mm 1 mps 524 mmHg 63%
    23:00 +3°C° 0 mm 1 mps 524 mmHg 61%

    Tomorrow, 16 December, Saturday

    Time Temperature Precipitation Wind Pressure Humidity
    00:00 +2°C° 0 mm 2 mps 524 mmHg 58%
    01:00 +1°C° 0 mm 2 mps 524 mmHg 55%
    02:00 +1°C° 0 mm 2 mps 524 mmHg 52%
    03:00 +1°C° 0 mm 2 mps 523 mmHg 49%
    04:00 +1°C° 0 mm 2 mps 523 mmHg 47%
    05:00 +1°C° 0 mm 2 mps 523 mmHg 44%
    06:00 +1°C° 0 mm 2 mps 523 mmHg 42%
    07:00 +3°C° 0 mm 2 mps 525 mmHg 38%
    08:00 +6°C° 0 mm 2 mps 527 mmHg 35%
    09:00 +8°C° 0 mm 2 mps 529 mmHg 32%
    10:00 +9°C° 0 mm 2 mps 529 mmHg 31%
    11:00 +12°C° 0 mm 2 mps 529 mmHg 31%
    12:00 +12°C° 0 mm 3 mps 530 mmHg 31%
    13:00 +11°C° 0 mm 3 mps 529 mmHg 36%
    14:00 +11°C° 0 mm 3 mps 528 mmHg 40%
    15:00 +10°C° 0 mm 3 mps 528 mmHg 45%
    16:00 +8°C° 0 mm 2 mps 527 mmHg 58%
    17:00 +5°C° 0 mm 2 mps 526 mmHg 70%
    18:00 +4°C° 0 mm 1 mps 524 mmHg 83%
    19:00 +3°C° 0 mm 2 mps 525 mmHg 80%
    20:00 +2°C° 0 mm 2 mps 525 mmHg 77%
    21:00 +2°C° 0 mm 2 mps 525 mmHg 73%
    22:00 +2°C° 0 mm 2 mps 525 mmHg 71%
    23:00 +2°C° 0 mm 2 mps 525 mmHg 68%

    Day after tomorrow, 17 December, Sunday

    Time Temperature Precipitation Wind Pressure Humidity
    00:00 +1°C° 0 mm 2 mps 525 mmHg 65%
    01:00 +1°C° 0 mm 2 mps 525 mmHg 61%
    02:00 +1°C° 0 mm 2 mps 525 mmHg 57%
    03:00 +1°C° 0 mm 2 mps 525 mmHg 53%
    04:00 +1°C° 0 mm 2 mps 525 mmHg 50%
    05:00 +1°C° 0 mm 2 mps 524 mmHg 48%
    06:00 +1°C° 0 mm 2 mps 524 mmHg 45%
    07:00 +3°C° 0 mm 2 mps 526 mmHg 40%
    08:00 +6°C° 0 mm 1 mps 528 mmHg 36%
    09:00 +9°C° 0 mm 1 mps 530 mmHg 31%
    10:00 +9°C° 0 mm 2 mps 530 mmHg 30%
    11:00 +10°C° 0 mm 2 mps 530 mmHg 30%
    12:00 +12°C° 0 mm 2 mps 530 mmHg 30%
    13:00 +12°C° 0 mm 2 mps 530 mmHg 34%
    14:00 +10°C° 0 mm 2 mps 529 mmHg 38%
    15:00 +10°C° 0 mm 2 mps 528 mmHg 42%
    16:00 +7°C° 0 mm 2 mps 527 mmHg 54%
    17:00 +5°C° 0 mm 2 mps 526 mmHg 65%
    18:00 +3°C° 0 mm 1 mps 525 mmHg 77%
    19:00 +3°C° 0 mm 1 mps 525 mmHg 73%
    20:00 +3°C° 0 mm 1 mps 525 mmHg 70%
    21:00 +2°C° 0 mm 2 mps 526 mmHg 66%
    22:00 +2°C° 0 mm 2 mps 525 mmHg 63%
    23:00 +2°C° 0 mm 2 mps 525 mmHg 60%

    18 December, Monday

    Time Temperature Precipitation Wind Pressure Humidity
    00:00 +2°C° 0 mm 2 mps 525 mmHg 57%
    01:00 +2°C° 0 mm 2 mps 525 mmHg 55%
    02:00 +2°C° 0 mm 2 mps 524 mmHg 52%
    03:00 +1°C° 0 mm 2 mps 524 mmHg 49%
    04:00 +1°C° 0 mm 2 mps 524 mmHg 47%
    05:00 +1°C° 0 mm 2 mps 524 mmHg 44%
    06:00 +1°C° 0 mm 2 mps 524 mmHg 41%
    07:00 +4°C° 0 mm 2 mps 526 mmHg 37%
    08:00 +7°C° 0 mm 1 mps 528 mmHg 33%
    09:00 +10°C° 0 mm 1 mps 530 mmHg 29%
    10:00 +10°C° 0 mm 2 mps 530 mmHg 29%
    11:00 +12°C° 0 mm 2 mps 531 mmHg 29%
    12:00 +12°C° 0 mm 3 mps 531 mmHg 29%
    13:00 +12°C° 0 mm 3 mps 530 mmHg 33%
    14:00 +12°C° 0 mm 3 mps 530 mmHg 37%
    15:00 +12°C° 0 mm 2 mps 529 mmHg 41%
    16:00 +8°C° 0 mm 2 mps 528 mmHg 52%
    17:00 +6°C° 0 mm 2 mps 526 mmHg 63%
    18:00 +4°C° 0 mm 1 mps 525 mmHg 75%
    19:00 +4°C° 0 mm 1 mps 525 mmHg 70%
    20:00 +4°C° 0 mm 1 mps 526 mmHg 64%
    21:00 +3°C° 0 mm 2 mps 526 mmHg 59%
    22:00 +3°C° 0 mm 2 mps 526 mmHg 57%
    23:00 +3°C° 0 mm 2 mps 526 mmHg 54%

    19 December, Tuesday

    Time Temperature Precipitation Wind Pressure Humidity
    00:00 +3°C° 0 mm 2 mps 526 mmHg 52%
    01:00 +3°C° 0 mm 2 mps 525 mmHg 50%
    02:00 +2°C° 0 mm 2 mps 525 mmHg 48%
    03:00 +2°C° 0 mm 2 mps 525 mmHg 46%
    04:00 +2°C° 0 mm 2 mps 525 mmHg 44%
    05:00 +2°C° 0 mm 2 mps 525 mmHg 42%
    06:00 +2°C° 0 mm 2 mps 525 mmHg 41%
    07:00 +4°C° 0 mm 2 mps 526 mmHg 37%
    08:00 +8°C° 0 mm 1 mps 528 mmHg 34%
    09:00 +10°C° 0 mm 1 mps 530 mmHg 31%
    10:00 +11°C° 0 mm 1 mps 530 mmHg 31%
    11:00 +12°C° 0 mm 2 mps 531 mmHg 32%
    12:00 +13°C° 0 mm 2 mps 531 mmHg 32%
    13:00 +13°C° 0 mm 2 mps 530 mmHg 37%
    14:00 +12°C° 0 mm 2 mps 529 mmHg 41%
    15:00 +12°C° 0 mm 2 mps 529 mmHg 46%
    16:00 +8°C° 0 mm 2 mps 527 mmHg 58%
    17:00 +6°C° 0 mm 2 mps 526 mmHg 70%
    18:00 +4°C° 0 mm 1 mps 525 mmHg 82%
    19:00 +4°C° 0 mm 1 mps 525 mmHg 79%
    20:00 +4°C° 0 mm 1 mps 525 mmHg 77%
    21:00 +4°C° 0 mm 1 mps 526 mmHg 74%
    22:00 +4°C° 0 mm 1 mps 525 mmHg 73%
    23:00 +4°C° 0 mm 1 mps 525 mmHg 71%

    20 December, Wednesday

    Time Temperature Precipitation Wind Pressure Humidity
    00:00 +4°C° 0 mm 1 mps 525 mmHg 70%
    01:00 +3°C° 0 mm 1 mps 525 mmHg 68%
    02:00 +3°C° 0 mm 1 mps 524 mmHg 67%
    03:00 +3°C° 0 mm 1 mps 524 mmHg 65%
    04:00 +3°C° 0 mm 1 mps 524 mmHg 64%
    05:00 +3°C° 0 mm 1 mps 524 mmHg 63%
    06:00 +2°C° 0 mm 1 mps 524 mmHg 62%
    07:00 +5°C° 0 mm 1 mps 526 mmHg 56%
    08:00 +7°C° 0 mm 1 mps 527 mmHg 49%
    09:00 +9°C° 0 mm 1 mps 529 mmHg 43%
    10:00 +9°C° 0 mm 2 mps 529 mmHg 41%
    11:00 +10°C° 0 mm 2 mps 530 mmHg 39%
    12:00 +11°C° 0 mm 3 mps 530 mmHg 38%
    13:00 +11°C° 0 mm 3 mps 529 mmHg 41%
    14:00 +10°C° 0 mm 3 mps 528 mmHg 44%
    15:00 +10°C° 0 mm 2 mps 528 mmHg 47%
    16:00 +8°C° 0 mm 2 mps 527 mmHg 59%
    17:00 +5°C° 0 mm 2 mps 525 mmHg 71%
    18:00 +4°C° 0 mm 1 mps 524 mmHg 83%
    19:00 +3°C° 0 mm 1 mps 525 mmHg 81%
    20:00 +3°C° 0 mm 1 mps 525 mmHg 80%
    21:00 +3°C° 0 mm 1 mps 525 mmHg 78%
    22:00 +3°C° 0 mm 1 mps 525 mmHg 77%
    23:00 +3°C° 0 mm 1 mps 524 mmHg 76%
    Show more